Regional Weather Roundup
Issued by NWS Grand Forks, ND

Home | Current Version | Previous Version | Graphics & Text | Print | Product List | Glossary On
Versions: 1 2 3 4 5 6 7 8 9 10 11 12 13 14 15 16 17 18 19 20 21 22 23 24 25 26 27 28 29 30 31 32 33 34 35 36 37 38 39 40 41 42 43 44 45 46 47 48 49 50
000
ASUS43 KFGF 290031
RWRFGF
PRAIRIE TO PINES  WEATHER ROUNDUP
NATIONAL WEATHER SERVICE EASTERN NORTH DAKOTA/GRAND FORKS ND
700 PM CDT FRI AUG 28 2015

 **SATELLITE DATA USED TO AUGMENT SKY COVER AT AUTOMATED STATIONS**
 *****  WEATHER ACROSS EASTERN NORTH DAKOTA  *****

CITY           SKY/WX    TMP DP  RH WIND       PRES   REMARKS
GRAND FORKS    PTSUNNY   79  68  69 S15       29.82R
6HR MIN TEMP:  79; 6HR MAX TEMP:  85;

GRAND FRKS AFB SUNNY     80  70  70 SW10      29.83R
GRAND FRKS NWS   N/A     79 N/A N/A SW9         N/A
DEVILS LAKE    SUNNY     79  64  61 CALM      29.85R
6HR MIN TEMP:  79; 6HR MAX TEMP:  84;

FARGO          SUNNY     80  67  64 S16       29.87S
WAHPETON ARPT  CLEAR     73  61  64 S10       29.92S
$$

 ***** WEATHER ACROSS CENTRAL AND WESTERN NORTH DAKOTA  *****

CITY           SKY/WX    TMP DP  RH WIND       PRES   REMARKS
BISMARCK       MOSUNNY   87  64  46 S3        29.88R
6HR MIN TEMP:  83; 6HR MAX TEMP:  89;

MINOT          MOSUNNY   83  62  49 E5        29.85S
6HR MIN TEMP:  82; 6HR MAX TEMP:  87;

JAMESTOWN      SUNNY     78  70  76 S13       29.87S
6HR MIN TEMP:  78; 6HR MAX TEMP:  83;

MINOT AFB      MOSUNNY   85  62  46 E2        29.84S
GARRISON         N/A     80  31  16 CALM      29.88S
WILLISTON      PTSUNNY   87  46  24 SW6       29.88S HAZE
6HR MIN TEMP:  81; 6HR MAX TEMP:  91;

DICKINSON      PTSUNNY   86  49  27 W7        29.92S
6HR MIN TEMP:  84; 6HR MAX TEMP:  91;

HETTINGER      MOSUNNY   82  52  35 W7        29.97R HAZE
6HR MIN TEMP:  82; 6HR MAX TEMP:  89;

$$

 *****  OTHER AIRPORT OBSERVATIONS IN OUR AREA  *****

CITY           SKY/WX    TMP DP  RH WIND       PRES   REMARKS
WALHALLA       FAIR      77  73  88 MISG      29.83R
GRAFTON AIRPOR FAIR      81  72  74 SW5       29.82R
VALLEY CITY AR FAIR      75  73  94 S10       29.88S
CANDO          FAIR      77  66  69 W6        29.86R
CAVALIER APRT  FAIR      79  70  73 NW3       29.81S HAZE
GWINNER        FAIR      75  70  83 SW9       29.92S
SHEYENNE NWR     N/A     77  68  72 SW7       29.95S
ROLLA            N/A     73  64  73 W3        29.89R
 ***** THE ABOVE OBSERVATIONS ARE NON NWS ARE NOT QUALITY
       CONTROLLED AND MAY MIS-REPORT RAIN FOR SNOW...
$$

  *****  WEATHER ACROSS NORTHERN MINNESOTA  *****

CITY           SKY/WX    TMP DP  RH WIND       PRES   REMARKS
FLAG ISLAND    PTSUNNY   72  66  83 CALM      29.83R
WARROAD        PTSUNNY   75  72  88 S3        29.84F
ROSEAU         MOSUNNY   79  70  73 CALM      29.83S
HALLOCK        MOSUNNY   81  72  74 NE3       29.81R
THF RVR FALLS  PTSUNNY  N/A N/A N/A S10       29.86R
BAUDETTE       PTSUNNY   78  67  68 SW9       29.84S
6HR MIN TEMP:  71; 6HR MAX TEMP:  81;

WASKISH        MOSUNNY   73  66  78 SW8       29.88R
CROOKSTON      MOSUNNY   79  66  65 SW13      29.86R
STEPHEN NDAWN    N/A     81  73  78 S3          N/A
GREENBUSH NDAW   N/A     79  70  73 SW3         N/A
$$
  *****  WEATHER ACROSS CENTRAL AND WEST MINNESOTA  *****

CITY           SKY/WX    TMP DP  RH WIND       PRES   REMARKS
FOSSTON        MOSUNNY   75  64  69 S13G18    29.90R
BEMIDJI        SUNNY     75  64  70 SW10G16   29.91R
PARK RAPIDS    MOSUNNY   77  63  61 SW10      29.93R
6HR MIN TEMP:  77; 6HR MAX TEMP:  82;

ELBOW LAKE     FAIR      72  64  77 S10       29.95F
6HR MIN TEMP:  73; 6HR MAX TEMP:  78;

WADENA         SUNNY     73  63  68 S8        29.95S
DETROIT LAKES  SUNNY     73  64  73 S10       29.94R
MOORHEAD       SUNNY     79  66  65 S13       29.89S
FERGUS FALLS   SUNNY     73  64  73 S10       29.92S
MORRIS MN      SUNNY     72  64  78 S12       29.96R
STAPLES        MOSUNNY   72  63  73 S6        29.96R
$$
  *****  WEATHER ELSEWHERE ACROSS MINNESOTA  *****

CITY           SKY/WX    TMP DP  RH WIND       PRES   REMARKS
DULUTH         PTCLDY    74  62  66 SW12      29.95R
6HR MIN TEMP:  74; 6HR MAX TEMP:  79;

INTRNTL FALLS  MOCLDY    76  66  71 SW13      29.83F THUNDER
6HR MIN TEMP:  69; 6HR MAX TEMP:  81; 6HR PCP:  0.02;

ELY            MOCLDY    73  64  73 SW7       29.92S
CLOQUET        PTCLDY    72  59  64 SW8       29.97R
WHEATON        SUNNY     70  63  78 SE9       29.95S
BRAINERD       CLOUDY    75  63  66 S8        29.96R
6HR MIN TEMP:  75; 6HR MAX TEMP:  80;

HIBBING        PTCLDY    75  64  68 SW7       29.93S
6HR MIN TEMP:  73; 6HR MAX TEMP:  80;

ALEXANDRIA     MOSUNNY   71  62  73 S13       29.99R
6HR MIN TEMP:  72; 6HR MAX TEMP:  78;

SAINT CLOUD    CLEAR     70  62  76 S9        29.98R
6HR MIN TEMP:  70; 6HR MAX TEMP:  80;

MINNEAPOLIS    MOCLDY    68  58  70 SE12      29.99S
6HR MIN TEMP:  68; 6HR MAX TEMP:  76;

$$

  *****  WEATHER ACROSS SOUTH DAKOTA  *****

CITY           SKY/WX    TMP DP  RH WIND       PRES   REMARKS
SIOUX FALLS    CLOUDY    69  61  75 NE10      29.97R
6HR MIN TEMP:  69; 6HR MAX TEMP:  72;

BROOKINGS      SUNNY     70  61  73 E8        30.01R
WATERTOWN      SUNNY     73  63  70 S8        29.97S
6HR MIN TEMP:  73; 6HR MAX TEMP:  78;

HURON          SUNNY     76  65  68 SE5       29.94S
6HR MIN TEMP:  75; 6HR MAX TEMP:  81;

SISSETON         N/A     75  65  70 S9        29.92S
ABERDEEN       SUNNY     76  67  73 S7        29.93S
6HR MIN TEMP:  74; 6HR MAX TEMP:  79;

MITCHELL       SUNNY     75  66  73 E3        29.96S
PIERRE         SUNNY     81  68  64 E5        29.94R
6HR MIN TEMP:  74; 6HR MAX TEMP:  83;

MOBRIDGE       SUNNY     80  68  66 S8        29.90S
RAPID CITY     SUNNY     82  66  58 E3        30.03S
6HR MIN TEMP:  82; 6HR MAX TEMP:  87;

$$

  *****  SOME WEATHER IN NEARBY STATES *****

CITY           SKY/WX    TMP DP  RH WIND       PRES   REMARKS
GLASGOW MT     CLOUDY    82  43  25 W5        29.90S HAZE
6HR MIN TEMP:  82; 6HR MAX TEMP:  88;

GREAT FALLS MT CLOUDY    88  34  14 S9        29.92F HAZE
6HR MIN TEMP:  85; 6HR MAX TEMP:  93;

CHEYENNE WY    SUNNY     78  38  23 NE5       30.26R
6HR MIN TEMP:  73; 6HR MAX TEMP:  81;

SCOTTSBLUFF NE SUNNY     84  51  31 NE5       30.10S
6HR MIN TEMP:  82; 6HR MAX TEMP:  90;

OMAHA NE       CLOUDY    68  66  93 NW13      29.88S FOG
6HR MIN TEMP:  71; 6HR MAX TEMP:  79;

DES MOINES IA  CLOUDY    74  66  76 S10       29.84S
6HR MIN TEMP:  68; 6HR MAX TEMP:  79; 6HR PCP:  0.02;

DAVENPORT IA   CLOUDY    69  64  84 SE9       29.97F
6HR MIN TEMP:  67; 6HR MAX TEMP:  72; 6HR PCP: TRACE;

CHICAGO IL     CLOUDY    72  60  66 SE6       30.06F
6HR MIN TEMP:  71; 6HR MAX TEMP:  72;

EAU CLAIRE WI  CLOUDY    64  59  83 S10       30.04R
6HR MIN TEMP:  64; 6HR MAX TEMP:  71; 6HR PCP:  0.08;

LA CROSSE WI   LGT RAIN  60  57  89 E9        30.03F
6HR MIN TEMP:  60; 6HR MAX TEMP:  65; 6HR PCP:  1.14;

$$

  *****  SOME NATIONAL WEATHER *****

CITY           SKY/WX    TMP DP  RH WIND       PRES   REMARKS
LA GUARDIA NY  PTCLDY    80  52  37 N8        30.14R
6HR MIN TEMP:  78; 6HR MAX TEMP:  83;

RALEIGH NC     PTCLDY    79  57  46 E5        30.14S
6HR MIN TEMP:  79; 6HR MAX TEMP:  87;

ATLANTA GA     CLOUDY    79  66  64 E8        30.11S
6HR MIN TEMP:  78; 6HR MAX TEMP:  83;

NEW ORLEANS LA PTCLDY    86  62  44 E10       29.96R
6HR MIN TEMP:  86; 6HR MAX TEMP:  91;

OKLAHOMA CITY  CLOUDY    85  69  58 S7        29.91F
6HR MIN TEMP:  76; 6HR MAX TEMP:  86; 6HR PCP: TRACE;

ALBUQUERQUE NM MOSUNNY   83  49  30 E26G35    30.12S
6HR MIN TEMP:  81; 6HR MAX TEMP:  91;

SALT LAKE CITY MOSUNNY   92  34  13 MISG      30.05F
6HR MIN TEMP:  84; 6HR MAX TEMP:  94;

LOS ANGELES CA MOSUNNY   82  61  48 W14       29.83S



USA.gov is the U.S. government's official web portal to all federal, state and local government web resources and services.